World > North America > United States > Ohio

Waterford, Ohio Regional Weather

Lat: 39.54N, Lon: 81.64W
Wx Zone: OHZ076Web Search
Waterford Weather Warning NWS WEATHER ALERT FOR THE WATERFORD, OH AREA - HARD FROST ADVISORY Issued: 440 AM EDT Wed May 12 2021 Waterford Weather Warning  

Our weather pages are very print friendly and they make great conversation starters.

Feedback


°F Click to change Waterford hourly weather to Imperial units.Click to change Waterford hourly weather to Metric units. °C
Waterford Weather Map
UTC Time: 5/12/2021, 11:39
Your Time:

Waterford, OH Regional Weather

Expires:202105121200;;995661
ASUS41 KCLE 121112
RWRCLE
OHIO REGIONAL WEATHER ROUNDUP
NATIONAL WEATHER SERVICE WILMINGTON, OH
700 AM EDT WED MAY 12 2021

NOTE: "FAIR" INDICATES FEW OR NO CLOUDS BELOW 12,000 FEET WITH NO
SIGNIFICANT WEATHER AND/OR OBSTRUCTIONS TO VISIBILITY.


OHZ036-037-039>041-045>050-054>059-063>069-073>076-082>088-121200-
  CENTRAL AND SOUTHEAST OHIO
  
CITY           SKY/WX    TMP DP  RH WIND       PRES   REMARKS
COLUMBUS       FAIR      36  34  92 CALM      30.37R                  
OSU AIRPORT    FAIR      39  32  76 N7        30.37R                  
BOLTON FIELD   FAIR      37  32  80 CALM      30.38R                  
RICKENBACK AFB FAIR      36  34  91 CALM      30.38R                  
NEWARK         FAIR      34  33  96 CALM      30.37R                  
MARION         FAIR      35  31  85 NW3       30.38R                  
LANCASTER      FAIR      34  33  96 CALM      30.38R                  
ZANESVILLE     FAIR      33  32  96 CALM      30.36R                  
NEW PHILLY     FAIR      34  34 100 CALM      30.36R                  
$$
  

SKY/WX - Weather  TMP - Temperature  DP - Dew Point  RH - Relative Humidity
WIND - Wind Direction/Speed PRES - Barometric Pressure VSB - Visibility
WCI - Wind Chill Index E13G22 Wind - East Wind 13 mph/Gusts of 22 mph